Regional Weather Roundup
Issued by NWS Northern Indiana

Home | Current Version | Previous Version | Graphics & Text | Print | Product List | Glossary On
Versions: 1 2 3 4 5 6 7 8 9 10 11 12 13 14 15 16 17 18 19 20 21 22 23 24 25 26 27 28 29 30 31 32 33 34 35 36 37 38 39 40 41 42 43 44 45 46 47 48 49 50
000
ASUS43 KIWX 041110
RWRIWX

KIWX WEATHER ROUNDUP
NATIONAL WEATHER SERVICE NORTHERN INDIANA
700 AM EDT TUE AUG 04 2015

NOTE: "FAIR" INDICATES FEW OR NO CLOUDS BELOW 12,000 FEET WITH NO
SIGNIFICANT WEATHER AND/OR OBSTRUCTIONS TO VISIBILITY.

* THESE STATIONS ARE NOT UNDER NWS QUALITY CONTROL. THEY ALSO MAY NOT
  REPORT WEATHER SUCH AS PRECIPITATION OR FOG.

INZ001>027-041200-
NORTHERN INDIANA

CITY           SKY/WX    TMP DP  RH WIND       PRES   REMARKS
GARY*          CLEAR     61  57  88 CALM      29.95R
VALPARAISO     CLEAR     61  55  81 W6        29.96R
MICHIGAN CITY* CLEAR     55  55 100 CALM      29.95R
LAPORTE*       CLEAR     56  56 100 CALM      29.96R
KNOX*          CLEAR     55  55 100 CALM      29.94R
SOUTH BEND     CLEAR     59  55  87 SW3       29.95R
ELKHART*       CLEAR     57  55  94 CALM      29.94
GOSHEN         CLEAR     58  54  86 SW3       29.94R
MONTICELLO*    CLEAR     57  56  98 CALM      29.95R
LOGANSPORT*    CLEAR     55  52  88 SW3       29.97R
ROCHESTER*     CLEAR     61  57  88 CALM      29.96R
WARSAW*        CLEAR     55  54  94 CALM      29.95R
ANGOLA*        CLEAR     55  54  94 CALM      29.94R
FORT WAYNE     PTCLDY    59  56  89 SW6       29.96R
HUNTINGTON*    CLEAR     60  57  89 CALM      29.96R
PERU/GRISSOM   CLEAR     58  55  92 S3        29.96R
MARION*        PTCLDY    55  54  99 CALM      29.97R FOG

$$
INZ028>050-041200-
CENTRAL INDIANA

CITY           SKY/WX    TMP DP  RH WIND       PRES   REMARKS
LAFAYETTE      CLEAR     56  55  97 CALM      29.97R
KOKOMO*        CLEAR     57  54  88 SW3       29.97R
MUNCIE*        CLEAR     57  55  93 CALM      29.97R
INDIANAPOLIS   MOCLDY    62  57  83 W3        29.96R

$$
MIZ043>046-050>051-056>058-064>065-071>073-077>080-041200-
SOUTHWEST LOWER MICHIGAN

CITY           SKY/WX    TMP DP  RH WIND       PRES   REMARKS
BATTLE CREEK     N/A    N/A N/A N/A MISG      29.93R
BENTON HARBOR  CLEAR     56  55  97 CALM      29.93R
COLDWATER*     PTCLDY    56  53  89 SW3       29.93R
HILLSDALE*     CLEAR     59  53  80 W3        29.93S
HOLLAND        CLEAR     59  56  89 CALM      29.92R
GRAND RAPIDS   PTCLDY    60  57  89 W6        29.91R
KALAMAZOO      CLEAR     60  54  80 CALM      29.93R
STURGIS*       CLEAR     55  54  94 CALM      29.93R
THREE RIVERS*  FAIR      56  54  92 CALM      29.93R

$$
OHZ001>008-015>018-024>025-041200-
NORTHWEST OHIO

CITY           SKY/WX    TMP DP  RH WIND       PRES   REMARKS
WAUSEON*       FAIR      55  54  94 CALM      29.93S
DEFIANCE       CLEAR     57  53  86 CALM      29.94R
FINDLAY        CLEAR     59  52  77 CALM      29.94R
TOLEDO EXPRESS CLEAR     58  52  80 SW5       29.93R
TOLEDO METCALF CLEAR     59  53  80 SW6       29.94R
LIMA           CLEAR     59  53  80 S3        29.96R

$$
AND FOR LAKE MICHIGAN COASTAL AND OPEN LAKE BUOY OBSERVATIONS

STATION/POSITION TEMP    WIND        PRES    VSBY  WAVE
                 AIR SEA DIR/SP/G                  HT/PER
                 (F)     (DEG/KT/KT) (MB)    (MI)  (FT/S)
CALUMET HARBOR    65     250/  2/  3   N/A
MICHIGAN CITY     64     160/  3/  4   N/A
BURNS HARBOR      64     200/  4/  5 1013.9S
SAINT JOSEPH      69     330/  2/  5 1013.9R
4 MI NW BRIDGMAN  71 73  350/  6/  8   N/A           2/ 3
MICHIGAN CITY     72 73  300/  6/  8   N/A           2/ 4

$$
&&


USA.gov is the U.S. government's official web portal to all federal, state and local government web resources and services.